S-NET A

Last updated on Tue Sep 22 2026 00:03:30 GMT+0000 (Coordinated Universal Time)

1 43188U 18014J 26264.16620636 .00003190 00000+0 16270-3 0 9999 2 43188 97.5265 168.5671 0009923 49.6245 310.5853 15.17430114473317
UTC large
Height (km)
Speed (km/s)
/
Latitude / Longitude
Inclination (degrees)
Orbital Period (minutes)
Azimuth
Elevation
Range (km)
Doppler Factor

Next 0 passes for location: London (51.5072 / 0.1276)

No passes found over London.
S-NET A